Location: Les Salelles
(44.4192°N, 4.1044°E)
Time: 11:09:15
(UTC+00:00)

Cosmos 2263 Rocket - Pass Details

Date: 20 January 2021
Orbit: 825 x 847 km, 71.0° (Epoch: 01 March)

Event Time Altitude Azimuth Distance (km) Brightness Sun altitude
Rises 17:12:45 0° 210° (SSW) 3,395 6.3 -6.7°
Reaches altitude 10° 17:15:13 10° 213° (SSW) 2,463 5.5 -7.1°
Maximum altitude 17:20:52 71° 297° (WNW) 893 2.5 -8.0°
Drops below altitude 10° 17:26:31 10° 22° (NNE) 2,469 4.2 -9.0°
Sets 17:28:59 0° 24° (NNE) 3,404 4.9 -9.4°
Enters shadow 17:29:06 - 25° (NNE) 3,448 5.0 -9.4°
